{"data":{"norad_id":69232,"intl_designator":"2026-115X","name":"STARLINK-37745","alt_names":[],"object_type":"PAYLOAD","status":"ACTIVE","operator":null,"country":"US","launch_date":"2026-05-26","launch_site_code":"AFWTR","launch_vehicle":null,"mission":null,"orbit_class":"UNKNOWN","rcs_meters":null,"size_class":null,"mass_kg":null,"dimensions":null,"purposes":["comms"],"wikipedia_slug":null,"has_3d_model":false,"image_url":null,"decayed_at":null,"tle_current":{"epoch":"2026-09-19T23:16:11.663616Z","epoch_age_seconds":72732,"freshness":"FRESH","line1":"1 69232U 26115X   26262.96957944  .00014914  00000+0  46326-3 0  9990","line2":"2 69232  97.2848 279.1438 0000996 105.1537 254.9815 15.33453878 19216","mean_motion":15.33453878,"eccentricity":9.96e-5,"inclination_deg":97.2848,"raan_deg":279.1438,"arg_perigee_deg":105.1537,"mean_anomaly_deg":254.9815,"bstar":0.00046326,"rev_number":1921,"period_min":93.905660982651,"perigee_km":464.83513200929,"apogee_km":466.19838783827,"semimajor_km":6843.6537599238,"source":"CELESTRAK","updated_at":"2026-09-20T09:00:44.106077Z"}}}